Location: Volkssternwarte_EN
(51.3230°N, 7.4010°E)
Time: 15:30:18
(UTC+01:00)

BlueWalker 3 - Visible Passes

Search period start: 30 November 2022 00:00
Search period end: 10 December 2022 00:00
Orbit: 500 x 519 km, 53.2° (Epoch: 29 November)

Date Brightness Start Highest point End Pass type
(mag) Time Alt. Az. Time Alt. Az. Time Alt. Az.
30 Nov 1.9 17:35:37 10° WSW 17:39:32 87° SSE 17:42:28 17° ENE visible
30 Nov 3.0 19:14:29 10° W 19:17:18 43° WNW 19:17:18 43° WNW visible
01 Dec 2.0 17:17:15 10° WSW 17:21:10 89° SSE 17:24:49 12° ENE visible
01 Dec 2.2 18:56:07 10° W 18:59:38 60° NNW 18:59:38 60° NNW visible
02 Dec 2.0 16:58:51 10° WSW 17:02:48 89° N 17:06:43 10° ENE visible
02 Dec 1.9 18:37:44 10° W 18:41:39 65° N 18:41:58 61° NE visible
02 Dec 5.2 20:16:31 10° WNW 20:16:48 12° WNW 20:16:48 12° WNW visible
03 Dec 2.0 18:19:22 10° W 18:23:16 66° N 18:24:20 44° ENE visible
03 Dec 4.7 19:58:08 10° WNW 19:59:09 17° WNW 19:59:09 17° WNW visible
04 Dec 2.0 18:00:59 10° WNW 18:04:53 66° N 18:06:43 29° E visible
04 Dec 4.1 19:39:44 10° WNW 19:41:33 25° W 19:41:33 25° W visible
05 Dec 2.0 17:42:35 10° WNW 17:46:30 67° N 17:49:09 19° E visible
05 Dec 3.3 19:21:21 10° WNW 19:23:59 39° W 19:23:59 39° W visible
06 Dec 2.0 17:24:11 10° WNW 17:28:06 67° N 17:31:39 12° E visible
06 Dec 2.4 19:02:56 10° WNW 19:06:29 57° SW 19:06:29 57° SW visible
07 Dec 2.0 17:05:47 10° WNW 17:09:42 68° N 17:13:35 10° E visible
07 Dec 2.4 18:44:33 10° WNW 18:48:24 57° SSW 18:49:05 48° SSE visible
08 Dec 2.5 18:26:07 10° WNW 18:29:57 55° SSW 18:31:48 27° SE visible
08 Dec 5.1 20:05:53 10° W 20:06:40 12° WSW 20:06:40 12° WSW visible
09 Dec 2.7 18:07:42 10° WNW 18:11:31 53° SSW 18:14:42 14° SE visible
09 Dec 4.8 19:47:36 10° WSW 19:49:30 13° SW 19:49:33 13° SW visible
